Time,TemperatureF,DewpointF,PressureIn,WindDirection,WindDirectionDegrees,WindSpeedMPH,WindSpeedGustMPH,Humidity,HourlyPrecipIn,Conditions,Clouds,dailyrainin,SolarRadiationWatts/m^2,SoftwareType,DateUTC
2013-01-17 00:06:00,68.2,65.0,30.00,SSE,153,0.0,1.0,88,0.00,,,0.00,0,weatherlink.com 1.10,2013-01-17 05:06:00,
2013-01-17 00:21:00,67.8,64.0,30.00,SSE,153,0.0,0.0,88,0.00,,,0.00,0,weatherlink.com 1.10,2013-01-17 05:21:00,
2013-01-17 00:36:00,67.6,64.0,30.00,SSE,153,0.0,1.0,89,0.00,,,0.00,0,weatherlink.com 1.10,2013-01-17 05:36:00,
2013-01-17 00:51:00,67.3,64.0,30.01,SSE,153,0.0,0.0,89,0.00,,,0.00,0,weatherlink.com 1.10,2013-01-17 05:51:00,
2013-01-17 01:06:00,67.0,64.0,30.01,SSE,153,0.0,0.0,90,0.00,,,0.00,0,weatherlink.com 1.10,2013-01-17 06:06:00,
2013-01-17 01:21:00,66.8,64.0,30.01,SSE,153,0.0,1.0,90,0.00,,,0.00,0,weatherlink.com 1.10,2013-01-17 06:21:00,
2013-01-17 01:36:00,66.4,64.0,30.01,SSE,152,0.0,0.0,90,0.00,,,0.00,0,weatherlink.com 1.10,2013-01-17 06:36:00,
2013-01-17 01:51:00,65.9,63.0,30.01,SSE,153,0.0,0.0,90,0.00,,,0.00,0,weatherlink.com 1.10,2013-01-17 06:51:00,
2013-01-17 02:06:00,65.8,63.0,30.01,SSE,153,0.0,1.0,91,0.00,,,0.00,0,weatherlink.com 1.10,2013-01-17 07:06:00,
2013-01-17 02:21:00,65.7,63.0,30.01,SSE,152,0.0,1.0,92,0.00,,,0.00,0,weatherlink.com 1.10,2013-01-17 07:21:00,
2013-01-17 02:36:00,65.4,63.0,30.00,SSE,152,0.0,0.0,91,0.00,,,0.00,0,weatherlink.com 1.10,2013-01-17 07:36:00,
2013-01-17 02:51:00,65.0,63.0,30.00,SSE,153,0.0,1.0,92,0.00,,,0.00,0,weatherlink.com 1.10,2013-01-17 07:51:00,
2013-01-17 03:06:00,64.7,62.0,30.00,SSE,154,0.0,1.0,92,0.00,,,0.00,0,weatherlink.com 1.10,2013-01-17 08:06:00,
2013-01-17 03:21:00,64.3,62.0,30.00,SSE,152,0.0,1.0,92,0.00,,,0.00,0,weatherlink.com 1.10,2013-01-17 08:21:00,
2013-01-17 03:36:00,63.9,62.0,30.00,SSE,153,0.0,0.0,92,0.00,,,0.00,0,weatherlink.com 1.10,2013-01-17 08:36:00,
2013-01-17 03:51:00,63.8,62.0,30.00,SSE,152,0.0,0.0,92,0.00,,,0.00,0,weatherlink.com 1.10,2013-01-17 08:51:00,
2013-01-17 04:06:00,63.7,61.0,30.00,SSE,152,0.0,0.0,92,0.00,,,0.00,0,weatherlink.com 1.10,2013-01-17 09:06:00,
2013-01-17 04:21:00,63.8,62.0,30.00,SSE,152,0.0,0.0,92,0.00,,,0.00,0,weatherlink.com 1.10,2013-01-17 09:21:00,
2013-01-17 04:36:00,63.6,61.0,29.99,SSE,152,0.0,0.0,92,0.00,,,0.00,0,weatherlink.com 1.10,2013-01-17 09:36:00,
2013-01-17 04:51:00,63.5,61.0,30.00,SSE,152,0.0,0.0,92,0.00,,,0.00,0,weatherlink.com 1.10,2013-01-17 09:51:00,
2013-01-17 05:06:00,63.2,61.0,29.99,SSE,153,0.0,0.0,92,0.00,,,0.00,0,weatherlink.com 1.10,2013-01-17 10:06:00,
2013-01-17 05:21:00,62.9,61.0,30.00,SSE,152,1.0,1.0,92,0.00,,,0.00,0,weatherlink.com 1.10,2013-01-17 10:21:00,
2013-01-17 05:37:00,63.2,61.0,30.00,SSE,153,0.0,3.0,92,0.00,,,0.00,0,weatherlink.com 1.10,2013-01-17 10:37:00,
2013-01-17 06:07:00,63.2,61.0,30.00,SSE,153,0.0,1.0,92,0.00,,,0.00,0,weatherlink.com 1.10,2013-01-17 11:07:00,
2013-01-17 06:22:00,63.1,61.0,30.00,SSE,153,0.0,2.0,92,0.00,,,0.00,0,weatherlink.com 1.10,2013-01-17 11:22:00,
2013-01-17 06:37:00,63.0,61.0,30.00,SSE,152,0.0,0.0,92,0.00,,,0.00,0,weatherlink.com 1.10,2013-01-17 11:37:00,
2013-01-17 06:52:00,62.9,61.0,30.00,SSE,153,0.0,2.0,92,0.00,,,0.00,0,weatherlink.com 1.10,2013-01-17 11:52:00,
2013-01-17 07:07:00,63.5,62.0,30.00,SSE,152,0.0,2.0,93,0.00,,,0.00,0,weatherlink.com 1.10,2013-01-17 12:07:00,
2013-01-17 07:22:00,63.9,62.0,30.00,SSE,152,0.0,1.0,93,0.00,,,0.00,5,weatherlink.com 1.10,2013-01-17 12:22:00,
2013-01-17 07:37:00,64.3,62.0,30.00,SSE,152,0.0,2.0,93,0.01,,,0.01,16,weatherlink.com 1.10,2013-01-17 12:37:00,
2013-01-17 07:53:00,64.7,63.0,30.00,SSE,149,3.0,5.0,93,0.01,,,0.01,23,weatherlink.com 1.10,2013-01-17 12:53:00,
2013-01-17 08:07:00,65.2,63.0,30.01,SSE,168,4.0,4.0,93,0.01,,,0.01,39,weatherlink.com 1.10,2013-01-17 13:07:00,
2013-01-17 08:22:00,66.2,65.0,30.01,SSE,152,2.0,6.0,94,0.01,,,0.01,44,weatherlink.com 1.10,2013-01-17 13:22:00,
2013-01-17 08:37:00,67.2,65.0,30.02,SSW,200,5.0,7.0,93,0.00,,,0.01,192,weatherlink.com 1.10,2013-01-17 13:37:00,
2013-01-17 08:52:00,68.3,66.0,30.02,SSE,167,6.0,9.0,92,0.00,,,0.01,241,weatherlink.com 1.10,2013-01-17 13:52:00,
2013-01-17 09:07:00,69.3,66.0,30.02,South,173,3.0,9.0,89,0.00,,,0.01,287,weatherlink.com 1.10,2013-01-17 14:07:00,
2013-01-17 09:22:00,70.5,67.0,30.02,South,170,0.0,8.0,87,0.00,,,0.01,334,weatherlink.com 1.10,2013-01-17 14:22:00,
2013-01-17 09:53:00,72.2,67.0,30.02,South,171,5.0,10.0,84,0.00,,,0.01,176,weatherlink.com 1.10,2013-01-17 14:53:00,
2013-01-17 10:07:00,73.0,68.0,30.02,South,176,5.0,13.0,83,0.00,,,0.01,517,weatherlink.com 1.10,2013-01-17 15:07:00,
2013-01-17 10:22:00,74.8,68.0,30.02,South,180,2.0,9.0,80,0.00,,,0.01,520,weatherlink.com 1.10,2013-01-17 15:22:00,
2013-01-17 10:37:00,75.4,68.0,30.01,SSE,167,6.0,12.0,77,0.00,,,0.01,555,weatherlink.com 1.10,2013-01-17 15:37:00,
2013-01-17 10:52:00,76.6,68.0,30.00,SSW,201,1.0,10.0,74,0.00,,,0.01,577,weatherlink.com 1.10,2013-01-17 15:52:00,
2013-01-17 11:07:00,77.1,67.0,29.99,SW,215,0.0,10.0,71,0.00,,,0.01,613,weatherlink.com 1.10,2013-01-17 16:07:00,
2013-01-17 11:22:00,78.5,68.0,29.99,SE,140,3.0,10.0,69,0.00,,,0.01,696,weatherlink.com 1.10,2013-01-17 16:22:00,
2013-01-17 11:37:00,78.2,66.0,29.98,West,262,4.0,13.0,67,0.00,,,0.01,737,weatherlink.com 1.10,2013-01-17 16:37:00,
2013-01-17 11:53:00,79.0,66.0,29.97,South,190,11.0,15.0,64,0.00,,,0.01,206,weatherlink.com 1.10,2013-01-17 16:53:00,
2013-01-17 12:08:00,79.1,65.0,29.96,South,186,4.0,8.0,63,0.00,,,0.01,178,weatherlink.com 1.10,2013-01-17 17:08:00,
2013-01-17 12:23:00,78.5,65.0,29.95,SSW,203,6.0,14.0,63,0.00,,,0.01,91,weatherlink.com 1.10,2013-01-17 17:23:00,
2013-01-17 12:38:00,76.9,64.0,29.95,SSW,201,3.0,16.0,65,0.00,,,0.01,65,weatherlink.com 1.10,2013-01-17 17:38:00,
2013-01-17 12:53:00,76.4,64.0,29.94,WSW,242,6.0,16.0,66,0.00,,,0.01,316,weatherlink.com 1.10,2013-01-17 17:53:00,
2013-01-17 13:08:00,72.8,64.0,29.94,West,270,14.0,20.0,74,0.00,,,0.01,322,weatherlink.com 1.10,2013-01-17 18:08:00,
2013-01-17 13:23:00,71.6,64.0,29.95,SW,221,8.0,14.0,77,0.00,,,0.01,287,weatherlink.com 1.10,2013-01-17 18:23:00,
2013-01-17 13:38:00,71.0,63.0,29.94,WNW,292,4.0,20.0,77,0.00,,,0.01,269,weatherlink.com 1.10,2013-01-17 18:38:00,
2013-01-17 13:53:00,70.8,63.0,29.93,West,281,5.0,14.0,76,0.00,,,0.01,163,weatherlink.com 1.10,2013-01-17 18:53:00,
2013-01-17 14:08:00,69.8,62.0,29.94,West,271,2.0,15.0,77,0.00,,,0.01,155,weatherlink.com 1.10,2013-01-17 19:08:00,
2013-01-17 14:23:00,68.3,61.0,29.95,SW,218,10.0,12.0,78,0.00,,,0.01,93,weatherlink.com 1.10,2013-01-17 19:23:00,
2013-01-17 14:53:00,65.6,59.0,29.96,WNW,284,5.0,12.0,79,0.00,,,0.01,135,weatherlink.com 1.10,2013-01-17 19:53:00,
2013-01-17 15:08:00,64.7,58.0,29.96,SW,227,6.0,14.0,78,0.00,,,0.01,118,weatherlink.com 1.10,2013-01-17 20:08:00,
2013-01-17 15:23:00,63.0,57.0,29.97,SW,223,6.0,11.0,81,0.00,,,0.01,91,weatherlink.com 1.10,2013-01-17 20:23:00,
2013-01-17 15:38:00,61.3,55.0,29.98,WNW,284,5.0,16.0,80,0.00,,,0.01,118,weatherlink.com 1.10,2013-01-17 20:38:00,
2013-01-17 15:53:00,61.2,55.0,29.99,SW,227,10.0,16.0,79,0.00,,,0.01,98,weatherlink.com 1.10,2013-01-17 20:53:00,
2013-01-17 16:08:00,61.2,54.0,30.00,West,263,5.0,10.0,78,0.00,,,0.01,88,weatherlink.com 1.10,2013-01-17 21:08:00,
2013-01-17 16:23:00,60.9,54.0,30.00,WSW,257,3.0,17.0,78,0.00,,,0.01,76,weatherlink.com 1.10,2013-01-17 21:23:00,
2013-01-17 16:38:00,60.6,54.0,30.01,WSW,256,3.0,16.0,78,0.00,,,0.01,37,weatherlink.com 1.10,2013-01-17 21:38:00,
2013-01-17 16:53:00,60.4,53.0,30.01,West,273,3.0,16.0,77,0.00,,,0.01,25,weatherlink.com 1.10,2013-01-17 21:53:00,
2013-01-17 17:08:00,60.3,53.0,30.01,West,277,2.0,18.0,76,0.00,,,0.01,25,weatherlink.com 1.10,2013-01-17 22:08:00,
2013-01-17 17:23:00,60.0,52.0,30.02,WSW,249,12.0,18.0,75,0.00,,,0.01,21,weatherlink.com 1.10,2013-01-17 22:23:00,
2013-01-17 17:38:00,60.0,52.0,30.02,NNW,334,4.0,10.0,75,0.00,,,0.01,11,weatherlink.com 1.10,2013-01-17 22:38:00,
2013-01-17 17:53:00,60.1,51.0,30.02,West,266,2.0,9.0,73,0.00,,,0.01,0,weatherlink.com 1.10,2013-01-17 22:53:00,
2013-01-17 18:08:00,59.9,50.0,30.03,WSW,247,9.0,17.0,71,0.00,,,0.01,0,weatherlink.com 1.10,2013-01-17 23:08:00,
2013-01-17 18:23:00,59.8,50.0,30.03,West,264,3.0,17.0,70,0.00,,,0.01,0,weatherlink.com 1.10,2013-01-17 23:23:00,
2013-01-17 18:38:00,59.7,50.0,30.04,WNW,296,2.0,16.0,70,0.00,,,0.01,0,weatherlink.com 1.10,2013-01-17 23:38:00,
2013-01-17 18:53:00,59.6,50.0,30.04,WNW,296,1.0,10.0,70,0.00,,,0.01,0,weatherlink.com 1.10,2013-01-17 23:53:00,
2013-01-17 19:08:00,59.6,49.0,30.04,SW,233,15.0,20.0,67,0.00,,,0.01,0,weatherlink.com 1.10,2013-01-18 00:08:00,
2013-01-17 19:23:00,59.0,48.0,30.05,WNW,282,2.0,15.0,68,0.00,,,0.01,0,weatherlink.com 1.10,2013-01-18 00:23:00,
2013-01-17 19:38:00,58.4,47.0,30.05,WSW,252,0.0,12.0,67,0.00,,,0.01,0,weatherlink.com 1.10,2013-01-18 00:38:00,
2013-01-17 19:53:00,58.0,47.0,30.05,SW,230,8.0,11.0,67,0.00,,,0.01,0,weatherlink.com 1.10,2013-01-18 00:53:00,
2013-01-17 20:08:00,57.8,47.0,30.05,WSW,243,11.0,11.0,68,0.00,,,0.01,0,weatherlink.com 1.10,2013-01-18 01:08:00,
2013-01-17 20:23:00,57.6,47.0,30.06,West,277,0.0,11.0,69,0.00,,,0.01,0,weatherlink.com 1.10,2013-01-18 01:23:00,
2013-01-17 20:38:00,57.3,48.0,30.07,SSW,192,1.0,14.0,70,0.00,,,0.01,0,weatherlink.com 1.10,2013-01-18 01:38:00,
2013-01-17 20:54:00,57.2,48.0,30.07,West,266,1.0,11.0,71,0.00,,,0.01,0,weatherlink.com 1.10,2013-01-18 01:54:00,
2013-01-17 21:09:00,57.3,48.0,30.07,WSW,258,6.0,17.0,70,0.00,,,0.01,0,weatherlink.com 1.10,2013-01-18 02:09:00,
2013-01-17 21:24:00,57.5,48.0,30.07,West,275,2.0,9.0,70,0.00,,,0.01,0,weatherlink.com 1.10,2013-01-18 02:24:00,
2013-01-17 21:39:00,57.3,47.0,30.07,West,275,9.0,14.0,69,0.00,,,0.01,0,weatherlink.com 1.10,2013-01-18 02:39:00,
2013-01-17 21:54:00,56.8,47.0,30.07,WSW,248,4.0,20.0,69,0.00,,,0.01,0,weatherlink.com 1.10,2013-01-18 02:54:00,
2013-01-17 22:09:00,56.6,47.0,30.07,West,278,7.0,10.0,70,0.00,,,0.01,0,weatherlink.com 1.10,2013-01-18 03:09:00,
2013-01-17 22:24:00,56.0,46.0,30.07,West,263,1.0,12.0,70,0.00,,,0.01,0,weatherlink.com 1.10,2013-01-18 03:24:00,
2013-01-17 22:39:00,55.8,47.0,30.07,West,261,1.0,13.0,72,0.00,,,0.01,0,weatherlink.com 1.10,2013-01-18 03:39:00,
2013-01-17 22:54:00,55.5,47.0,30.07,WNW,294,7.0,14.0,72,0.00,,,0.01,0,weatherlink.com 1.10,2013-01-18 03:54:00,
2013-01-17 23:09:00,55.2,47.0,30.08,NNW,345,6.0,8.0,73,0.00,,,0.01,0,weatherlink.com 1.10,2013-01-18 04:09:00,
2013-01-17 23:24:00,54.5,46.0,30.08,SW,230,1.0,12.0,73,0.00,,,0.01,0,weatherlink.com 1.10,2013-01-18 04:24:00,
2013-01-17 23:39:00,54.0,46.0,30.09,North,355,2.0,9.0,73,0.00,,,0.01,0,weatherlink.com 1.10,2013-01-18 04:39:00,
2013-01-17 23:54:00,53.5,45.0,30.09,WSW,250,2.0,12.0,73,0.00,,,0.01,0,weatherlink.com 1.10,2013-01-18 04:54:00,